EN

Hourly Weather Acaxochitlan

Today, 29 November, Sunday

Time Temperature Precipitation Wind Pressure Humidity
00:00 +11°C° 0 mm 1 mps 582 mmHg 65%
01:00 +11°C° 0 mm 1 mps 582 mmHg 65%
02:00 +11°C° 0 mm 1 mps 581 mmHg 64%
03:00 +11°C° 0 mm 1 mps 581 mmHg 65%
04:00 +10°C° 0 mm 1 mps 582 mmHg 66%
05:00 +10°C° 0 mm 1 mps 582 mmHg 68%
06:00 +12°C° 0 mm 1 mps 583 mmHg 63%
07:00 +14°C° 0 mm 1 mps 584 mmHg 59%
08:00 +15°C° 0 mm 0 mps 586 mmHg 54%
09:00 +18°C° 0 mm 1 mps 586 mmHg 53%
10:00 +18°C° 0 mm 2 mps 586 mmHg 53%
11:00 +19°C° 0 mm 2 mps 587 mmHg 52%
12:00 +18°C° 0 mm 3 mps 586 mmHg 61%
13:00 +17°C° 0 mm 3 mps 585 mmHg 70%
14:00 +16°C° 0 mm 3 mps 584 mmHg 78%
15:00 +15°C° 0.2 mm 2 mps 584 mmHg 84%
16:00 +14°C° 0.2 mm 2 mps 584 mmHg 90%
17:00 +13°C° 0.2 mm 2 mps 584 mmHg 95%
18:00 +13°C° 0.2 mm 1 mps 584 mmHg 95%
19:00 +13°C° 0.2 mm 1 mps 585 mmHg 95%
20:00 +12°C° 0.2 mm 1 mps 586 mmHg 94%
21:00 +12°C° 0.4 mm 1 mps 586 mmHg 95%
22:00 +12°C° 0.4 mm 1 mps 586 mmHg 95%
23:00 +12°C° 0.4 mm 1 mps 586 mmHg 96%

Tomorrow, 30 November, Monday

Time Temperature Precipitation Wind Pressure Humidity
00:00 +12°C° 0.4 mm 1 mps 586 mmHg 96%
01:00 +12°C° 0.4 mm 2 mps 585 mmHg 97%
02:00 +10°C° 0.4 mm 2 mps 585 mmHg 97%
03:00 +9°C° 0.4 mm 2 mps 585 mmHg 97%
04:00 +9°C° 0.4 mm 2 mps 585 mmHg 97%
05:00 +8°C° 0.4 mm 2 mps 585 mmHg 96%
06:00 +7°C° 0.1 mm 2 mps 585 mmHg 95%
07:00 +6°C° 0.1 mm 2 mps 585 mmHg 94%
08:00 +5°C° 0.1 mm 2 mps 586 mmHg 93%
09:00 +6°C° 0 mm 2 mps 586 mmHg 91%
10:00 +6°C° 0 mm 2 mps 586 mmHg 89%
11:00 +6°C° 0 mm 2 mps 586 mmHg 87%
12:00 +6°C° 0 mm 2 mps 585 mmHg 87%
13:00 +6°C° 0 mm 2 mps 584 mmHg 87%
14:00 +6°C° 0 mm 2 mps 584 mmHg 87%
15:00 +5°C° 0 mm 2 mps 584 mmHg 90%
16:00 +5°C° 0 mm 2 mps 584 mmHg 92%
17:00 +4°C° 0 mm 2 mps 584 mmHg 94%
18:00 +5°C° 0 mm 1 mps 584 mmHg 94%
19:00 +5°C° 0 mm 1 mps 584 mmHg 94%
20:00 +5°C° 0 mm 1 mps 585 mmHg 94%
21:00 +5°C° 0 mm 1 mps 585 mmHg 94%
22:00 +5°C° 0 mm 1 mps 585 mmHg 94%
23:00 +4°C° 0 mm 0 mps 585 mmHg 94%

Day after tomorrow, 1 December, Tuesday

Time Temperature Precipitation Wind Pressure Humidity
00:00 +4°C° 0 mm 0 mps 584 mmHg 94%
01:00 +4°C° 0 mm 0 mps 584 mmHg 94%
02:00 +4°C° 0 mm 0 mps 583 mmHg 94%
03:00 +4°C° 0 mm 0 mps 583 mmHg 94%
04:00 +4°C° 0 mm 0 mps 583 mmHg 94%
05:00 +5°C° 0 mm 1 mps 583 mmHg 94%
06:00 +7°C° 0 mm 1 mps 584 mmHg 88%
07:00 +9°C° 0 mm 1 mps 585 mmHg 81%
08:00 +11°C° 0 mm 1 mps 586 mmHg 75%
09:00 +12°C° 0 mm 2 mps 586 mmHg 69%
10:00 +14°C° 0 mm 2 mps 586 mmHg 63%
11:00 +15°C° 0 mm 2 mps 586 mmHg 57%
12:00 +15°C° 0 mm 2 mps 586 mmHg 58%
13:00 +15°C° 0 mm 2 mps 585 mmHg 59%
14:00 +15°C° 0 mm 2 mps 584 mmHg 61%
15:00 +13°C° 0 mm 2 mps 583 mmHg 68%
16:00 +12°C° 0 mm 1 mps 583 mmHg 75%
17:00 +10°C° 0 mm 1 mps 582 mmHg 83%
18:00 +10°C° 0 mm 1 mps 583 mmHg 81%
19:00 +10°C° 0 mm 1 mps 583 mmHg 79%
20:00 +11°C° 0 mm 1 mps 584 mmHg 77%
21:00 +9°C° 0 mm 2 mps 583 mmHg 80%
22:00 +9°C° 0 mm 2 mps 583 mmHg 83%
23:00 +8°C° 0 mm 2 mps 582 mmHg 85%

2 December, Wednesday

Time Temperature Precipitation Wind Pressure Humidity
00:00 +8°C° 0 mm 2 mps 582 mmHg 85%
01:00 +8°C° 0 mm 2 mps 582 mmHg 86%
02:00 +8°C° 0 mm 2 mps 582 mmHg 86%
03:00 +8°C° 0 mm 2 mps 582 mmHg 85%
04:00 +8°C° 0 mm 2 mps 582 mmHg 84%
05:00 +8°C° 0 mm 2 mps 582 mmHg 83%
06:00 +10°C° 0 mm 2 mps 583 mmHg 76%
07:00 +13°C° 0 mm 1 mps 584 mmHg 68%
08:00 +15°C° 0 mm 1 mps 586 mmHg 61%
09:00 +16°C° 0 mm 1 mps 586 mmHg 55%
10:00 +19°C° 0 mm 1 mps 586 mmHg 49%
11:00 +19°C° 0 mm 2 mps 587 mmHg 43%
12:00 +18°C° 0 mm 2 mps 586 mmHg 47%
13:00 +18°C° 0 mm 2 mps 585 mmHg 52%
14:00 +17°C° 0 mm 2 mps 584 mmHg 56%
15:00 +15°C° 0 mm 2 mps 584 mmHg 68%
16:00 +13°C° 0 mm 1 mps 583 mmHg 79%
17:00 +11°C° 0 mm 1 mps 582 mmHg 91%
18:00 +10°C° 0 mm 1 mps 582 mmHg 88%
19:00 +10°C° 0 mm 1 mps 583 mmHg 86%
20:00 +10°C° 0 mm 1 mps 583 mmHg 83%
21:00 +9°C° 0 mm 1 mps 583 mmHg 83%
22:00 +9°C° 0 mm 1 mps 583 mmHg 82%
23:00 +9°C° 0 mm 1 mps 583 mmHg 82%

3 December, Thursday

Time Temperature Precipitation Wind Pressure Humidity
00:00 +9°C° 0 mm 1 mps 583 mmHg 83%
01:00 +9°C° 0 mm 1 mps 582 mmHg 84%
02:00 +8°C° 0 mm 1 mps 582 mmHg 85%
03:00 +7°C° 0 mm 0 mps 582 mmHg 87%
04:00 +7°C° 0 mm 0 mps 582 mmHg 89%
05:00 +7°C° 0 mm 0 mps 582 mmHg 90%
06:00 +8°C° 0 mm 0 mps 583 mmHg 85%
07:00 +11°C° 0 mm 1 mps 585 mmHg 79%
08:00 +12°C° 0 mm 1 mps 586 mmHg 74%
09:00 +13°C° 0 mm 1 mps 586 mmHg 74%
10:00 +13°C° 0 mm 2 mps 586 mmHg 73%
11:00 +14°C° 0 mm 2 mps 586 mmHg 73%
12:00 +13°C° 0.1 mm 2 mps 585 mmHg 77%
13:00 +12°C° 0.1 mm 2 mps 584 mmHg 82%
14:00 +10°C° 0.1 mm 2 mps 583 mmHg 87%
15:00 +9°C° 0 mm 2 mps 583 mmHg 89%
16:00 +9°C° 0 mm 2 mps 583 mmHg 92%
17:00 +8°C° 0 mm 2 mps 583 mmHg 95%
18:00 +8°C° 0 mm 2 mps 584 mmHg 95%
19:00 +9°C° 0 mm 1 mps 584 mmHg 95%
20:00 +8°C° 0 mm 1 mps 585 mmHg 96%
21:00 +8°C° 0 mm 1 mps 585 mmHg 96%
22:00 +8°C° 0 mm 1 mps 584 mmHg 96%
23:00 +8°C° 0 mm 1 mps 584 mmHg 96%

4 December, Friday

Time Temperature Precipitation Wind Pressure Humidity
00:00 +7°C° 0 mm 1 mps 584 mmHg 96%
01:00 +7°C° 0 mm 1 mps 584 mmHg 96%
02:00 +7°C° 0 mm 1 mps 584 mmHg 95%
03:00 +7°C° 0 mm 1 mps 584 mmHg 95%
04:00 +7°C° 0 mm 1 mps 584 mmHg 95%
05:00 +7°C° 0 mm 1 mps 584 mmHg 95%
06:00 +7°C° 0 mm 1 mps 584 mmHg 93%
07:00 +8°C° 0 mm 1 mps 585 mmHg 90%
08:00 +9°C° 0 mm 1 mps 586 mmHg 88%
09:00 +9°C° 0 mm 1 mps 586 mmHg 84%
10:00 +9°C° 0 mm 2 mps 586 mmHg 80%
11:00 +10°C° 0 mm 2 mps 586 mmHg 76%
12:00 +9°C° 0 mm 2 mps 585 mmHg 77%
13:00 +9°C° 0 mm 2 mps 584 mmHg 77%
14:00 +9°C° 0 mm 2 mps 584 mmHg 78%
15:00 +8°C° 0 mm 2 mps 584 mmHg 82%
16:00 +8°C° 0 mm 1 mps 583 mmHg 87%
17:00 +7°C° 0 mm 1 mps 583 mmHg 91%
18:00 +7°C° 0 mm 1 mps 584 mmHg 92%
19:00 +6°C° 0 mm 1 mps 584 mmHg 92%
20:00 +6°C° 0 mm 1 mps 585 mmHg 92%
21:00 +6°C° 0 mm 1 mps 585 mmHg 93%
22:00 +6°C° 0 mm 1 mps 585 mmHg 93%
23:00 +6°C° 0 mm 1 mps 585 mmHg 94%
Show more